QPF
0.00 0.00 0.01 0.02 0.03 0.02 0.01 0.00 0.00 0.00 0.00 0.00 0.00 0.01 0.00 0.00 0.00 0.00 0.01 0.00 0.00 0.00 0.01 0.01 0.00 0.00 0.00 0.01 0.01 0.02 0.03 0.04 0.05 0.05 0.05 0.05 0.05 0.05 0.03 0.02 0.02 0.01 0.02 0.02
0.00 0.01 0.02 0.01 0.01 0.01 0.00 0.00 0.00 0.00 0.00 0.00 0.00 0.01 0.00 0.00 0.00 0.00 0.00 0.00 0.00 0.00 0.01 0.02 0.01 0.00 0.00 0.00 0.01 0.01 0.02 0.03 0.03 0.04 0.05 0.05 0.06 0.05 0.04 0.03 0.06 0.04 0.01 0.02
0.00 0.01 0.01 0.00 0.00 0.01 0.00 0.01 0.00 0.00 0.00 0.01 0.01 0.03 0.01 0.01 0.00 0.00 0.00 0.00 0.00 0.00 0.01 0.04 0.02 0.01 0.00 0.00 0.00 0.00 0.01 0.02 0.03 0.03 0.05 0.05 0.05 0.05 0.04 0.04 0.06 0.04 0.02 0.01
0.00 0.01 0.00 0.00 0.00 0.00 0.00 0.01 0.01 0.00 0.01 0.01 0.02 0.06 0.02 0.01 0.00 0.00 0.00 0.00 0.00 0.01 0.02 0.00 0.00 0.01 0.01 0.00 0.00 0.01 0.02 0.03 0.03 0.03 0.04 0.04 0.04 0.04 0.05 0.04 0.06 0.08 0.04 0.02
0.00 0.01 0.01 0.00 0.00 0.00 0.00 0.00 0.00 0.00 0.01 0.02 0.03 0.03 0.02 0.01 0.00 0.00 0.00 0.00 0.00 0.01 0.03 0.01 0.00 0.00 0.00 0.00 0.00 0.01 0.02 0.02 0.02 0.02 0.03 0.03 0.03 0.03 0.03 0.04 0.06 0.07 0.06 0.05
0.00 0.00 0.00 0.00 0.00 0.00 0.00 0.00 0.00 0.00 0.01 0.04 0.02 0.03 0.04 0.02 0.00 0.00 0.00 0.00 0.00 0.00 0.00 0.00 0.00 0.00 0.00 0.00 0.00 0.00 0.03 0.02 0.01 0.01 0.02 0.02 0.04 0.04 0.04 0.04 0.05 0.05 0.06 0.06
0.00 0.00 0.00 0.00 0.00 0.00 0.00 0.00 0.01 0.03 0.05 0.04 0.02 0.02 0.04 0.01 0.01 0.00 0.00 0.00 0.00 0.00 0.00 0.00 0.00 0.00 0.01 0.00 0.00 0.01 0.03 0.03 0.02 0.01 0.01 0.01 0.03 0.03 0.03 0.03 0.04 0.05 0.05 0.06
0.00 0.00 0.00 0.00 0.00 0.00 0.00 0.01 0.04 0.06 0.05 0.02 0.01 0.01 0.01 0.01 0.00 0.00 0.00 0.00 0.00 0.00 0.00 0.00 0.00 0.00 0.00 0.00 0.00 0.02 0.03 0.02 0.01 0.01 0.02 0.02 0.02 0.02 0.03 0.03 0.03 0.05 0.04 0.04
0.00 0.00 0.00 0.00 0.00 0.00 0.00 0.00 0.01 0.01 0.01 0.01 0.01 0.01 0.01 0.01 0.00 0.00 0.00 0.00 0.00 0.00 0.00 0.01 0.03 0.01 0.00 0.00 0.01 0.01 0.01 0.02 0.02 0.02 0.03 0.03 0.02 0.03 0.03 0.03 0.03 0.04 0.04 0.03
0.00 0.01 0.00 0.00 0.00 0.00 0.00 0.00 0.00 0.01 0.02 0.02 0.03 0.05 0.03 0.01 0.00 0.00 0.00 0.00 0.00 0.00 0.01 0.01 0.03 0.00 0.00 0.00 0.00 0.00 0.01 0.02 0.02 0.03 0.03 0.03 0.02 0.02 0.03 0.03 0.03 0.02 0.02 0.02
0.00 0.01 0.01 0.00 0.00 0.00 0.00 0.00 0.00 0.01 0.01 0.03 0.06 0.05 0.01 0.01 0.01 0.03 0.04 0.02 0.02 0.03 0.02 0.01 0.00 0.00 0.00 0.00 0.00 0.00 0.01 0.02 0.02 0.03 0.03 0.03 0.02 0.02 0.02 0.02 0.03 0.02 0.02 0.02
0.00 0.01 0.02 0.01 0.00 0.00 0.00 0.00 0.00 0.00 0.01 0.02 0.03 0.03 0.00 0.01 0.01 0.02 0.03 0.03 0.04 0.03 0.01 0.02 0.01 0.00 0.00 0.00 0.01 0.01 0.01 0.01 0.01 0.01 0.02 0.01 0.01 0.01 0.02 0.02 0.03 0.02 0.02 0.02
0.00 0.01 0.01 0.01 0.01 0.00 0.00 0.00 0.00 0.00 0.01 0.03 0.02 0.02 0.00 0.00 0.01 0.01 0.01 0.01 0.01 0.00 0.00 0.02 0.01 0.01 0.01 0.00 0.01 0.01 0.01 0.01 0.01 0.01 0.01 0.02 0.02 0.02 0.03 0.04 0.04 0.04 0.04 0.03
0.00 0.00 0.00 0.01 0.01 0.01 0.01 0.00 0.00 0.00 0.00 0.01 0.00 0.01 0.01 0.01 0.01 0.01 0.00 0.00 0.00 0.00 0.00 0.02 0.05 0.03 0.01 0.00 0.00 0.01 0.01 0.01 0.01 0.00 0.01 0.01 0.02 0.03 0.04 0.04 0.05 0.06 0.05 0.04
0.00 0.00 0.00 0.01 0.01 0.01 0.01 0.00 0.00 0.00 0.00 0.01 0.01 0.01 0.01 0.01 0.00 0.00 0.00 0.00 0.00 0.01 0.01 0.01 0.02 0.01 0.00 0.00 0.00 0.00 0.00 0.00 0.00 0.00 0.01 0.01 0.01 0.01 0.02 0.04 0.05 0.04 0.05 0.05
0.00 0.00 0.00 0.01 0.00 0.00 0.00 0.00 0.00 0.00 0.00 0.01 0.02 0.00 0.01 0.01 0.01 0.00 0.00 0.01 0.01 0.02 0.02 0.01 0.01 0.01 0.00 0.00 0.00 0.00 0.00 0.00 0.00 0.00 0.01 0.01 0.02 0.02 0.03 0.04 0.04 0.05 0.04 0.04
0.00 0.00 0.00 0.02 0.01 0.00 0.00 0.00 0.00 0.00 0.00 0.01 0.00 0.00 0.00 0.02 0.03 0.02 0.01 0.02 0.02 0.03 0.02 0.01 0.01 0.01 0.01 0.01 0.01 0.01 0.01 0.01 0.01 0.01 0.00 0.01 0.02 0.03 0.03 0.03 0.04 0.03 0.03 0.03
0.00 0.00 0.00 0.01 0.03 0.01 0.00 0.00 0.00 0.00 0.00 0.00 0.00 0.00 0.00 0.00 0.01 0.04 0.05 0.04 0.04 0.02 0.02 0.02 0.03 0.02 0.01 0.01 0.00 0.01 0.01 0.01 0.01 0.01 0.01 0.02 0.02 0.02 0.02 0.03 0.02 0.02 0.03 0.03
0.00 0.00 0.00 0.00 0.02 0.01 0.00 0.00 0.00 0.00 0.00 0.00 0.00 0.00 0.01 0.01 0.04 0.09 0.06 0.03 0.03 0.03 0.05 0.06 0.07 0.03 0.01 0.00 0.00 0.01 0.01 0.01 0.02 0.02 0.02 0.02 0.02 0.02 0.02 0.02 0.02 0.03 0.03 0.03
0.00 0.00 0.00 0.00 0.00 0.00 0.01 0.01 0.01 0.00 0.01 0.00 0.00 0.00 0.02 0.05 0.06 0.09 0.08 0.04 0.03 0.03 0.02 0.01 0.02 0.01 0.00 0.00 0.01 0.01 0.01 0.02 0.02 0.02 0.02 0.02 0.02 0.01 0.01 0.02 0.02 0.03 0.03 0.03
0.00 0.00 0.00 0.00 0.00 0.01 0.00 0.00 0.00 0.01 0.02 0.01 0.00 0.01 0.03 0.08 0.07 0.04 0.05 0.02 0.01 0.00 0.00 0.00 0.00 0.00 0.01 0.01 0.01 0.01 0.01 0.02 0.03 0.03 0.03 0.02 0.02 0.02 0.01 0.01 0.01 0.02 0.03 0.03
0.01 0.01 0.01 0.01 0.01 0.01 0.00 0.01 0.01 0.02 0.01 0.00 0.00 0.00 0.01 0.02 0.02 0.01 0.01 0.01 0.00 0.00 0.00 0.00 0.00 0.00 0.00 0.01 0.01 0.01 0.02 0.03 0.02 0.02 0.03 0.02 0.02 0.01 0.01 0.01 0.01 0.02 0.02 0.02
0.01 0.01 0.02 0.03 0.02 0.02 0.00 0.01 0.01 0.00 0.00 0.00 0.00 0.00 0.00 0.00 0.00 0.01 0.03 0.03 0.01 0.00 0.01 0.01 0.01 0.01 0.01 0.01 0.01 0.01 0.02 0.02 0.02 0.03 0.02 0.02 0.02 0.01 0.01 0.01 0.01 0.01 0.01 0.01
0.01 0.01 0.01 0.05 0.03 0.01 0.00 0.00 0.00 0.00 0.00 0.00 0.00 0.01 0.00 0.02 0.03 0.06 0.06 0.05 0.04 0.04 0.04 0.03 0.02 0.02 0.02 0.02 0.01 0.02 0.03 0.03 0.03 0.03 0.03 0.02 0.02 0.02 0.01 0.01 0.01 0.01 0.01 0.01
0.01 0.01 0.01 0.03 0.04 0.01 0.00 0.00 0.00 0.00 0.00 0.00 0.00 0.00 0.01 0.01 0.03 0.06 0.16 0.11 0.07 0.08 0.07 0.04 0.03 0.03 0.02 0.03 0.02 0.02 0.03 0.03 0.03 0.03 0.03 0.03 0.03 0.03 0.02 0.01 0.01 0.01 0.02 0.02
0.01 0.02 0.02 0.04 0.06 0.04 0.01 0.00 0.00 0.00 0.00 0.00 0.00 0.02 0.02 0.02 0.06 0.06 0.11 0.10 0.06 0.07 0.12 0.06 0.03 0.03 0.03 0.03 0.03 0.03 0.04 0.04 0.03 0.03 0.03 0.03 0.03 0.03 0.03 0.02 0.02 0.02 0.03 0.04
MSLP
1004.73 1005.15 1005.35 1005.36 1005.22 1005.04 1004.88 1004.82 1004.90 1005.10 1005.39 1005.70 1005.97 1006.16 1006.23 1006.19 1006.07 1005.92 1005.80 1005.75 1005.81 1005.97 1006.23 1006.56 1006.93 1007.31 1007.69 1008.05 1008.39 1008.73 1009.07 1009.42 1009.75 1010.08 1010.37 1010.62 1010.82 1010.98 1011.10 1011.22 1011.35 1011.52 1011.72 1011.95
1005.20 1005.40 1005.39 1005.23 1005.00 1004.80 1004.72 1004.82 1005.09 1005.48 1005.93 1006.35 1006.65 1006.78 1006.73 1006.52 1006.21 1005.89 1005.63 1005.49 1005.50 1005.67 1005.98 1006.37 1006.81 1007.24 1007.66 1008.04 1008.39 1008.74 1009.08 1009.44 1009.79 1010.12 1010.42 1010.66 1010.84 1010.96 1011.03 1011.10 1011.17 1011.29 1011.47 1011.70
1005.57 1005.53 1005.30 1004.98 1004.69 1004.53 1004.58 1004.87 1005.37 1005.99 1006.61 1007.13 1007.44 1007.50 1007.29 1006.86 1006.33 1005.78 1005.33 1005.07 1005.01 1005.17 1005.51 1005.97 1006.48 1006.99 1007.46 1007.89 1008.28 1008.65 1009.01 1009.38 1009.76 1010.11 1010.43 1010.68 1010.85 1010.94 1010.98 1010.99 1011.02 1011.10 1011.24 1011.44
1005.76 1005.50 1005.09 1004.67 1004.37 1004.30 1004.52 1005.04 1005.79 1006.63 1007.43 1008.03 1008.32 1008.26 1007.86 1007.19 1006.38 1005.57 1004.90 1004.46 1004.31 1004.43 1004.79 1005.30 1005.89 1006.48 1007.02 1007.51 1007.94 1008.35 1008.75 1009.16 1009.57 1009.96 1010.31 1010.59 1010.78 1010.88 1010.91 1010.90 1010.90 1010.93 1011.04 1011.22
1005.72 1005.30 1004.78 1004.33 1004.08 1004.14 1004.57 1005.33 1006.32 1007.37 1008.31 1008.96 1009.21 1009.01 1008.38 1007.43 1006.33 1005.24 1004.33 1003.70 1003.43 1003.50 1003.85 1004.40 1005.05 1005.71 1006.32 1006.87 1007.36 1007.81 1008.25 1008.70 1009.16 1009.61 1010.02 1010.36 1010.61 1010.75 1010.81 1010.81 1010.80 1010.82 1010.90 1011.05
1005.46 1004.94 1004.39 1003.98 1003.83 1004.06 1004.70 1005.68 1006.88 1008.10 1009.13 1009.80 1009.97 1009.61 1008.76 1007.54 1006.16 1004.80 1003.65 1002.85 1002.45 1002.45 1002.79 1003.36 1004.06 1004.77 1005.44 1006.03 1006.56 1007.04 1007.52 1008.02 1008.53 1009.06 1009.56 1009.99 1010.33 1010.56 1010.68 1010.73 1010.74 1010.77 1010.84 1010.97
1005.01 1004.48 1003.97 1003.65 1003.64 1004.04 1004.86 1006.03 1007.37 1008.69 1009.76 1010.40 1010.47 1009.95 1008.90 1007.46 1005.84 1004.27 1002.94 1001.99 1001.49 1001.43 1001.75 1002.33 1003.05 1003.79 1004.48 1005.10 1005.65 1006.15 1006.65 1007.18 1007.76 1008.36 1008.95 1009.50 1009.96 1010.30 1010.53 1010.66 1010.73 1010.79 1010.87 1010.99
1004.47 1004.00 1003.59 1003.38 1003.51 1004.05 1005.00 1006.26 1007.67 1009.01 1010.05 1010.61 1010.57 1009.92 1008.72 1007.13 1005.37 1003.68 1002.24 1001.21 1000.66 1000.57 1000.88 1001.47 1002.19 1002.94 1003.63 1004.25 1004.78 1005.28 1005.78 1006.33 1006.94 1007.61 1008.29 1008.96 1009.55 1010.03 1010.39 1010.63 1010.78 1010.89 1010.99 1011.12
1003.99 1003.62 1003.33 1003.24 1003.47 1004.09 1005.07 1006.33 1007.69 1008.95 1009.89 1010.35 1010.21 1009.47 1008.20 1006.55 1004.76 1003.05 1001.62 1000.60 1000.06 999.99 1000.31 1000.90 1001.62 1002.35 1003.03 1003.62 1004.12 1004.58 1005.06 1005.60 1006.22 1006.93 1007.69 1008.46 1009.17 1009.79 1010.28 1010.64 1010.89 1011.06 1011.20 1011.34
1003.71 1003.47 1003.29 1003.28 1003.55 1004.15 1005.06 1006.19 1007.40 1008.49 1009.27 1009.59 1009.37 1008.59 1007.33 1005.74 1004.03 1002.42 1001.10 1000.18 999.72 999.71 1000.07 1000.68 1001.40 1002.13 1002.78 1003.32 1003.78 1004.19 1004.62 1005.12 1005.73 1006.45 1007.25 1008.09 1008.90 1009.63 1010.24 1010.71 1011.05 1011.30 1011.49 1011.65
1003.77 1003.64 1003.54 1003.57 1003.80 1004.28 1005.00 1005.90 1006.85 1007.68 1008.25 1008.42 1008.12 1007.35 1006.17 1004.73 1003.22 1001.81 1000.68 999.94 999.62 999.72 1000.15 1000.80 1001.53 1002.25 1002.88 1003.39 1003.80 1004.16 1004.54 1004.99 1005.56 1006.25 1007.05 1007.91 1008.78 1009.58 1010.28 1010.85 1011.28 1011.60 1011.83 1012.03
1004.23 1004.18 1004.12 1004.11 1004.22 1004.50 1004.95 1005.53 1006.14 1006.67 1006.99 1006.99 1006.63 1005.90 1004.86 1003.63 1002.37 1001.22 1000.34 999.81 999.67 999.90 1000.41 1001.11 1001.87 1002.60 1003.23 1003.73 1004.13 1004.46 1004.79 1005.19 1005.71 1006.35 1007.11 1007.95 1008.82 1009.66 1010.41 1011.05 1011.55 1011.93 1012.22 1012.45
1005.03 1005.04 1004.96 1004.87 1004.80 1004.82 1004.95 1005.16 1005.40 1005.59 1005.65 1005.50 1005.09 1004.42 1003.54 1002.54 1001.54 1000.67 1000.04 999.73 999.76 1000.10 1000.70 1001.46 1002.26 1003.03 1003.69 1004.22 1004.64 1004.98 1005.30 1005.66 1006.13 1006.71 1007.41 1008.19 1009.03 1009.86 1010.63 1011.30 1011.85 1012.29 1012.62 1012.89
1006.07 1006.08 1005.96 1005.74 1005.48 1005.23 1005.02 1004.86 1004.74 1004.62 1004.43 1004.13 1003.68 1003.08 1002.35 1001.56 1000.80 1000.17 999.76 999.62 999.77 1000.20 1000.86 1001.66 1002.51 1003.34 1004.07 1004.68 1005.16 1005.56 1005.92 1006.29 1006.72 1007.24 1007.87 1008.59 1009.36 1010.14 1010.90 1011.58 1012.17 1012.65 1013.04 1013.34
1007.15 1007.13 1006.94 1006.60 1006.15 1005.65 1005.15 1004.67 1004.25 1003.86 1003.47 1003.05 1002.57 1002.03 1001.42 1000.80 1000.23 999.77 999.49 999.44 999.65 1000.11 1000.78 1001.60 1002.50 1003.39 1004.22 1004.95 1005.56 1006.08 1006.52 1006.93 1007.37 1007.86 1008.42 1009.06 1009.76 1010.48 1011.20 1011.88 1012.49 1013.01 1013.45 1013.80
1008.07 1008.01 1007.75 1007.30 1006.70 1006.01 1005.29 1004.59 1003.94 1003.36 1002.84 1002.35 1001.87 1001.37 1000.86 1000.35 999.88 999.50 999.26 999.22 999.40 999.81 1000.45 1001.25 1002.17 1003.13 1004.07 1004.95 1005.72 1006.40 1006.98 1007.49 1007.97 1008.46 1008.98 1009.55 1010.17 1010.83 1011.51 1012.17 1012.79 1013.36 1013.84 1014.25
1008.68 1008.57 1008.24 1007.72 1007.04 1006.24 1005.40 1004.57 1003.81 1003.15 1002.57 1002.06 1001.60 1001.16 1000.71 1000.26 999.82 999.44 999.15 999.02 999.09 999.39 999.91 1000.65 1001.56 1002.57 1003.62 1004.66 1005.62 1006.49 1007.23 1007.88 1008.45 1008.97 1009.47 1010.00 1010.55 1011.15 1011.78 1012.43 1013.06 1013.66 1014.19 1014.65
1008.91 1008.72 1008.36 1007.80 1007.09 1006.27 1005.41 1004.58 1003.82 1003.16 1002.61 1002.16 1001.75 1001.37 1000.97 1000.54 1000.08 999.63 999.23 998.95 998.84 998.96 999.33 999.95 1000.80 1001.83 1002.97 1004.14 1005.29 1006.35 1007.28 1008.08 1008.76 1009.34 1009.86 1010.36 1010.87 1011.41 1012.01 1012.63 1013.27 1013.90 1014.48 1014.99
1008.77 1008.52 1008.12 1007.56 1006.87 1006.11 1005.31 1004.56 1003.89 1003.33 1002.89 1002.54 1002.23 1001.93 1001.58 1001.15 1000.65 1000.10 999.56 999.09 998.77 998.67 998.85 999.32 1000.08 1001.08 1002.26 1003.54 1004.84 1006.07 1007.17 1008.12 1008.91 1009.56 1010.11 1010.61 1011.09 1011.60 1012.16 1012.76 1013.40 1014.05 1014.67 1015.24
1008.40 1008.08 1007.65 1007.10 1006.47 1005.79 1005.11 1004.49 1003.98 1003.58 1003.30 1003.09 1002.91 1002.71 1002.42 1002.01 1001.48 1000.84 1000.16 999.51 998.98 998.66 998.63 998.93 999.56 1000.49 1001.67 1003.00 1004.38 1005.73 1006.97 1008.04 1008.94 1009.66 1010.25 1010.75 1011.21 1011.69 1012.22 1012.81 1013.45 1014.11 1014.77 1015.38
1007.93 1007.54 1007.07 1006.54 1005.97 1005.39 1004.85 1004.39 1004.05 1003.83 1003.72 1003.68 1003.65 1003.57 1003.37 1003.01 1002.47 1001.78 1001.00 1000.20 999.50 998.98 998.76 998.88 999.36 1000.19 1001.30 1002.62 1004.03 1005.44 1006.76 1007.92 1008.88 1009.66 1010.27 1010.78 1011.24 1011.69 1012.20 1012.77 1013.40 1014.08 1014.76 1015.41
1007.51 1007.04 1006.53 1006.00 1005.48 1004.98 1004.56 1004.25 1004.07 1004.02 1004.08 1004.20 1004.33 1004.37 1004.28 1003.99 1003.49 1002.80 1001.98 1001.10 1000.28 999.62 999.24 999.19 999.52 1000.21 1001.23 1002.47 1003.85 1005.26 1006.59 1007.78 1008.77 1009.58 1010.21 1010.72 1011.17 1011.61 1012.09 1012.64 1013.27 1013.95 1014.66 1015.34
1007.21 1006.66 1006.11 1005.57 1005.06 1004.63 1004.29 1004.08 1004.02 1004.10 1004.29 1004.55 1004.81 1004.98 1005.00 1004.82 1004.40 1003.77 1002.97 1002.09 1001.22 1000.49 999.99 999.81 1000.00 1000.55 1001.43 1002.56 1003.85 1005.19 1006.48 1007.65 1008.64 1009.45 1010.08 1010.59 1011.03 1011.45 1011.92 1012.45 1013.07 1013.76 1014.48 1015.20
1007.02 1006.41 1005.81 1005.25 1004.75 1004.33 1004.03 1003.88 1003.88 1004.04 1004.31 1004.66 1005.01 1005.29 1005.43 1005.36 1005.07 1004.54 1003.83 1003.01 1002.17 1001.43 1000.88 1000.61 1000.68 1001.09 1001.82 1002.81 1003.97 1005.20 1006.41 1007.52 1008.48 1009.26 1009.89 1010.39 1010.82 1011.24 1011.69 1012.22 1012.84 1013.53 1014.27 1015.02
1006.85 1006.21 1005.59 1005.01 1004.50 1004.08 1003.78 1003.63 1003.64 1003.81 1004.11 1004.49 1004.90 1005.25 1005.49 1005.54 1005.38 1005.00 1004.43 1003.73 1002.98 1002.28 1001.74 1001.43 1001.41 1001.70 1002.29 1003.13 1004.14 1005.24 1006.34 1007.37 1008.27 1009.02 1009.63 1010.13 1010.56 1010.98 1011.44 1011.97 1012.59 1013.29 1014.04 1014.82
1006.61 1005.97 1005.35 1004.77 1004.25 1003.81 1003.49 1003.31 1003.28 1003.41 1003.68 1004.04 1004.46 1004.85 1005.16 1005.32 1005.29 1005.06 1004.66 1004.11 1003.50 1002.90 1002.40 1002.09 1002.03 1002.23 1002.70 1003.39 1004.26 1005.23 1006.22 1007.16 1008.00 1008.72 1009.32 1009.82 1010.26 1010.70 1011.17 1011.71 1012.33 1013.04 1013.82 1014.62
Thickness
5865 5851 5839 5847 5856 5857 5857 5851 5848 5858 5874 5864 5853 5850 5856 5863 5860 5853 5848 5845 5840 5837 5839 5838 5835 5832 5828 5823 5819 5815 5812 5811 5809 5806 5803 5801 5799 5800 5800 5798 5796 5794 5792 5790
5848 5842 5856 5865 5866 5861 5858 5850 5850 5861 5875 5866 5853 5849 5859 5861 5859 5858 5852 5849 5845 5840 5837 5835 5833 5831 5827 5822 5819 5816 5812 5811 5809 5807 5805 5803 5802 5801 5801 5799 5795 5792 5791 5790
5839 5851 5868 5863 5856 5851 5853 5852 5852 5852 5861 5864 5849 5832 5844 5858 5862 5862 5860 5856 5852 5844 5837 5833 5832 5831 5828 5824 5820 5818 5814 5812 5810 5809 5807 5805 5802 5800 5798 5795 5793 5792 5791 5789
5848 5861 5861 5856 5853 5852 5843 5865 5862 5855 5842 5836 5842 5810 5829 5846 5849 5855 5856 5856 5852 5849 5842 5837 5834 5832 5830 5827 5825 5820 5816 5813 5810 5809 5806 5801 5797 5793 5794 5794 5793 5791 5790 5788
5846 5857 5855 5849 5857 5861 5857 5870 5862 5852 5840 5832 5841 5823 5823 5845 5839 5849 5856 5857 5856 5853 5847 5841 5839 5836 5834 5832 5827 5822 5817 5812 5810 5808 5805 5801 5798 5797 5796 5795 5791 5789 5789 5787
5857 5871 5868 5864 5870 5871 5869 5862 5854 5847 5833 5812 5834 5826 5820 5839 5843 5850 5857 5859 5858 5855 5851 5847 5844 5839 5836 5834 5829 5824 5816 5812 5810 5807 5805 5801 5797 5796 5793 5791 5788 5787 5787 5786
5841 5857 5871 5873 5857 5864 5860 5839 5814 5804 5803 5809 5842 5830 5826 5850 5859 5859 5858 5857 5859 5857 5853 5848 5843 5837 5834 5832 5829 5824 5817 5811 5810 5807 5804 5801 5797 5795 5792 5789 5788 5786 5785 5783
5825 5832 5859 5866 5855 5846 5850 5842 5809 5792 5801 5817 5833 5818 5830 5858 5866 5870 5867 5863 5860 5857 5854 5848 5844 5840 5835 5833 5829 5824 5817 5812 5809 5806 5803 5801 5798 5795 5793 5791 5789 5786 5784 5783
5826 5830 5864 5870 5870 5859 5841 5838 5848 5829 5823 5810 5817 5822 5835 5854 5855 5861 5861 5859 5856 5856 5852 5848 5844 5841 5837 5833 5829 5825 5817 5812 5809 5806 5803 5800 5797 5795 5793 5791 5788 5786 5784 5783
5838 5822 5847 5863 5865 5863 5857 5848 5838 5821 5800 5790 5804 5806 5812 5830 5840 5848 5850 5849 5851 5853 5850 5846 5844 5842 5839 5835 5830 5826 5819 5813 5809 5806 5803 5800 5797 5795 5792 5789 5786 5784 5782 5779
5841 5821 5830 5845 5841 5840 5845 5840 5832 5825 5817 5792 5782 5798 5838 5837 5841 5842 5845 5846 5845 5844 5847 5846 5844 5842 5839 5835 5830 5824 5818 5812 5808 5805 5802 5799 5796 5794 5790 5787 5784 5782 5779 5777
5840 5825 5815 5831 5856 5861 5852 5845 5836 5812 5804 5809 5797 5800 5851 5848 5847 5845 5844 5843 5844 5845 5846 5844 5840 5837 5834 5830 5827 5821 5817 5812 5808 5805 5801 5797 5795 5791 5788 5785 5782 5780 5777 5774
5828 5814 5796 5806 5825 5840 5839 5844 5844 5836 5823 5810 5798 5801 5847 5846 5841 5842 5840 5840 5840 5841 5841 5838 5835 5831 5828 5825 5822 5818 5814 5811 5808 5804 5799 5795 5792 5788 5785 5782 5780 5778 5775 5772
5824 5810 5801 5791 5803 5817 5819 5832 5839 5830 5815 5807 5806 5807 5827 5831 5829 5832 5835 5836 5836 5835 5834 5832 5828 5824 5822 5820 5817 5814 5811 5809 5805 5801 5796 5791 5788 5786 5783 5781 5778 5776 5772 5769
5818 5802 5806 5810 5819 5822 5821 5824 5830 5826 5822 5811 5812 5812 5818 5823 5825 5826 5828 5828 5826 5825 5826 5825 5822 5819 5817 5815 5812 5809 5806 5804 5801 5796 5792 5788 5786 5784 5781 5777 5775 5772 5770 5767
5809 5796 5796 5794 5808 5813 5813 5821 5825 5824 5823 5818 5817 5812 5825 5826 5824 5819 5817 5818 5816 5815 5816 5817 5817 5815 5812 5809 5807 5804 5801 5799 5797 5792 5789 5786 5783 5779 5776 5773 5771 5768 5765 5762
5796 5788 5778 5776 5793 5797 5793 5815 5820 5820 5823 5818 5806 5811 5821 5813 5810 5811 5811 5812 5810 5811 5810 5809 5808 5808 5807 5806 5803 5799 5797 5795 5791 5787 5785 5782 5778 5775 5772 5770 5766 5762 5760 5757
5785 5777 5774 5771 5771 5757 5798 5830 5828 5821 5820 5822 5818 5817 5816 5811 5811 5810 5810 5808 5807 5806 5805 5805 5804 5803 5803 5803 5800 5796 5793 5789 5785 5781 5779 5777 5774 5770 5768 5764 5761 5758 5756 5752
5791 5774 5764 5762 5758 5771 5796 5812 5816 5807 5803 5815 5811 5809 5809 5810 5804 5799 5804 5806 5803 5803 5802 5801 5801 5799 5798 5796 5794 5789 5785 5782 5779 5776 5773 5771 5769 5766 5763 5759 5756 5754 5751 5749
5782 5775 5759 5758 5750 5751 5779 5805 5818 5807 5784 5805 5805 5799 5797 5795 5779 5780 5793 5797 5797 5798 5798 5797 5796 5794 5791 5790 5788 5782 5778 5776 5773 5772 5769 5768 5765 5762 5758 5755 5752 5750 5748 5744
5753 5753 5750 5748 5745 5758 5783 5799 5801 5769 5768 5793 5797 5793 5789 5780 5778 5783 5788 5789 5789 5790 5791 5790 5788 5785 5784 5784 5781 5775 5772 5770 5769 5769 5766 5763 5760 5757 5754 5751 5748 5745 5742 5739
5745 5743 5743 5744 5736 5740 5776 5781 5768 5765 5781 5786 5785 5784 5780 5778 5779 5779 5778 5779 5780 5781 5781 5781 5779 5777 5778 5777 5773 5768 5765 5766 5765 5762 5759 5756 5753 5751 5749 5744 5741 5739 5736 5731
5748 5747 5746 5744 5743 5756 5768 5767 5771 5775 5771 5773 5774 5775 5774 5770 5769 5768 5768 5768 5768 5770 5771 5772 5770 5769 5769 5769 5766 5761 5761 5760 5757 5754 5751 5748 5746 5744 5741 5737 5734 5731 5728 5725
5742 5749 5742 5737 5742 5751 5759 5763 5764 5765 5763 5765 5765 5766 5765 5759 5759 5758 5758 5758 5758 5759 5761 5761 5760 5758 5757 5759 5758 5756 5755 5754 5750 5746 5742 5740 5737 5735 5733 5730 5727 5725 5721 5718
5728 5733 5729 5725 5732 5740 5745 5749 5751 5753 5756 5756 5757 5757 5755 5751 5749 5749 5747 5747 5748 5748 5749 5750 5748 5747 5747 5749 5749 5748 5747 5745 5740 5737 5735 5732 5729 5727 5724 5721 5716 5714 5710 5708
5722 5718 5714 5711 5721 5722 5728 5738 5744 5742 5742 5744 5743 5743 5745 5744 5740 5740 5739 5738 5738 5737 5737 5738 5738 5738 5738 5739 5738 5737 5736 5735 5731 5728 5726 5724 5722 5719 5715 5711 5707 5702 5700 5697